GEFSNGP_con_maxscp_366.txt.gz
SCP
0 0 0 0 0 0 0 0 0 1 1 2 2 2 1 2 2 3 5 6 5 5 5 5 4 3 3 3 3 3 4 5 6 8 8 8 7 6 5 4 4 4 4 4
0 0 0 0 0 0 0 0 1 1 1 1 2 2 1 2 2 3 7 9 7 5 5 4 3 2 3 3 3 3 4 4 5 7 8 8 7 7 6 5 4 4 3 4
0 0 0 0 0 0 0 1 1 1 1 2 2 2 1 2 2 4 7 9 8 6 6 6 4 3 2 2 3 3 4 4 5 6 6 7 7 7 6 5 5 4 4 4
0 0 0 0 0 1 1 1 1 1 2 2 2 2 2 3 3 4 5 6 6 5 6 7 6 4 3 2 3 3 4 4 4 5 5 5 6 6 6 5 5 5 5 4
0 0 0 0 1 1 1 1 1 2 2 2 3 3 4 4 4 4 4 4 4 4 4 5 5 4 3 3 3 4 4 4 4 4 4 4 4 5 5 5 5 5 5 5
0 0 1 1 2 2 1 1 1 2 2 2 2 3 4 5 6 5 5 4 3 3 4 4 5 4 4 4 4 4 5 5 5 5 4 4 4 4 4 4 4 4 4 5
0 1 1 1 2 2 2 1 1 2 2 2 2 3 4 6 6 6 5 4 3 4 4 5 6 5 4 4 4 5 6 7 7 6 5 4 4 4 4 4 4 4 3 3
0 1 1 2 2 2 2 2 2 3 3 3 4 4 6 7 8 7 5 4 4 4 5 6 6 6 5 4 5 5 6 7 8 8 6 5 4 4 5 5 5 4 3 3
1 1 2 2 2 2 2 3 4 5 6 6 6 6 7 8 9 9 7 5 5 5 6 6 6 6 5 5 5 5 6 6 7 8 7 4 4 4 5 5 5 5 4 4
1 1 2 2 2 2 2 3 4 5 7 7 7 7 7 7 8 9 8 7 7 7 7 6 6 5 5 5 5 5 5 7 9 9 7 5 4 4 4 4 5 5 4 4
1 1 2 3 2 2 2 3 4 4 5 5 6 7 8 8 8 9 9 9 9 8 7 6 6 5 5 5 5 6 7 9 11 12 9 6 5 4 3 2 3 3 3 4
1 1 2 2 2 2 2 2 3 4 4 4 6 9 12 12 11 10 10 10 10 9 8 7 7 6 5 5 6 7 9 12 14 13 10 7 5 4 3 2 1 1 2 2
1 1 1 1 2 2 2 2 3 4 4 4 5 8 12 14 13 12 11 11 11 10 10 9 7 6 6 6 8 10 12 15 16 13 9 6 4 3 2 2 1 1 1 1
2 2 1 1 1 2 2 3 3 4 4 4 4 6 9 10 11 12 12 11 10 10 10 8 7 5 6 7 9 11 13 14 13 11 8 5 3 2 2 2 2 1 1 1
2 2 1 1 1 2 4 4 5 5 5 5 4 4 4 6 8 11 12 12 10 8 7 6 5 4 4 6 7 9 9 9 8 6 4 3 2 2 2 1 1 1 1 1
1 1 1 1 1 2 4 5 5 5 5 5 4 3 2 3 5 8 11 12 10 7 6 5 4 3 3 3 4 5 5 4 3 2 2 2 2 1 1 1 0 0 0 0
1 1 1 1 1 1 3 5 5 4 4 3 3 2 2 3 4 6 9 10 8 7 6 5 4 3 2 3 3 4 3 2 1 1 1 1 1 1 0 0 0 0 0 0
1 1 1 1 1 1 1 2 3 3 2 2 2 2 2 3 3 5 8 8 7 6 5 4 4 3 2 3 3 4 3 1 1 0 0 0 0 0 0 0 0 0 0 0
1 0 1 1 1 1 1 1 2 2 2 1 1 2 2 3 4 7 9 8 6 5 5 4 3 2 2 2 3 3 2 1 0 0 0 0 0 0 0 0 0 0 0 0
0 1 1 1 1 1 1 1 1 1 1 2 2 2 2 2 3 6 9 8 6 5 4 3 3 2 2 2 2 3 2 1 0 0 0 0 0 0 0 0 0 0 0 0
1 1 0 0 1 1 2 2 1 1 1 2 2 2 1 1 2 4 6 7 5 4 4 3 2 2 1 1 2 2 1 1 0 0 0 0 0 0 0 0 0 0 0 0
1 1 1 1 1 1 2 2 1 1 1 1 1 1 1 1 1 2 4 5 4 4 3 3 2 1 1 1 1 1 1 0 0 0 0 0 0 0 0 0 0 0 0 0
1 1 1 1 1 2 2 1 1 1 1 1 1 1 1 1 1 1 2 2 2 3 3 3 2 1 0 0 0 0 0 0 0 0 0 0 0 0 0 0 0 0 0 0
1 1 1 1 1 1 1 1 1 1 1 1 1 1 1 1 1 1 1 1 1 2 2 2 1 0 0 0 0 0 0 0 0 0 0 0 0 0 0 0 0 0 0 0
1 1 1 1 1 1 1 1 1 1 1 1 1 1 2 2 1 1 0 0 0 1 1 1 0 0 0 0 0 0 0 0 0 0 0 0 0 0 0 0 0 0 0 0
1 1 1 1 1 1 0 0 0 0 1 1 1 1 2 2 2 1 0 0 0 0 1 0 0 0 0 0 0 0 0 0 0 0 0 0 0 0 0 0 0 0 0 0
1 1 1 1 0 0 0 0 0 0 0 1 1 1 1 2 2 1 0 0 0 0 0 0 0 0 0 0 0 0 0 0 0 0 0 0 0 0 0 0 0 0 0 0

GEFSNGP_con_maxscp_372.txt.gz
SCP
0 0 0 0 0 0 0 0 0 0 0 0 0 0 1 1 1 2 2 2 2 1 1 2 2 2 2 2 1 1 1 1 1 1 1 2 2 4 5 5 5 6 6 5
0 0 0 0 0 0 0 0 0 0 0 0 1 1 1 1 2 2 1 2 2 1 1 1 2 2 2 2 2 1 1 1 1 1 1 2 2 3 4 5 6 6 6 6
0 0 0 0 0 1 1 1 1 1 1 1 1 1 1 1 2 2 1 1 2 2 1 1 2 2 3 3 2 2 2 1 1 1 2 2 2 2 3 5 6 7 7 7
0 0 0 0 1 1 1 1 1 1 1 1 2 2 2 2 2 1 1 1 2 3 2 2 2 3 3 3 3 3 2 2 2 2 2 2 2 2 3 4 5 7 7 8
0 0 0 0 1 1 1 1 1 2 2 2 2 2 2 2 2 1 1 2 3 3 3 4 4 3 3 3 3 3 2 2 2 2 2 2 3 3 3 3 4 5 6 7
0 0 0 0 1 1 1 1 1 2 2 2 2 2 1 2 2 2 2 2 3 3 3 3 4 3 3 3 3 2 2 2 2 3 3 3 3 4 4 4 4 4 5 6
0 0 0 1 2 2 1 1 1 2 2 2 2 1 1 2 3 3 2 2 2 3 2 2 2 3 3 2 2 2 2 2 3 3 3 3 3 4 5 5 5 5 5 5
0 0 0 1 2 2 1 1 1 2 2 2 1 1 1 2 3 4 3 3 2 2 2 2 2 2 2 2 2 2 2 2 3 3 3 3 4 5 5 5 5 5 4 4
0 0 0 1 1 1 1 1 1 1 2 1 1 1 1 2 3 5 5 3 2 2 2 2 3 3 3 2 2 2 3 2 3 3 4 4 5 5 5 4 4 4 3 3
0 0 0 1 1 1 1 1 1 2 2 1 1 1 1 1 3 4 5 4 3 2 2 3 3 3 3 3 3 3 3 3 3 4 5 4 4 4 4 4 3 3 3 2
0 0 0 1 1 1 1 1 1 2 3 2 1 1 1 1 2 4 5 5 4 3 3 3 4 4 4 4 4 4 4 4 4 5 5 5 4 3 3 3 3 2 2 2
0 0 0 1 1 1 2 2 2 2 3 2 2 2 1 1 2 3 5 5 4 3 3 4 4 4 5 4 4 4 4 4 5 6 6 5 4 4 3 3 2 2 2 2
0 0 1 1 1 1 1 1 1 2 2 2 3 3 2 1 2 3 4 5 4 3 4 4 4 5 5 5 5 4 4 4 5 6 7 7 5 4 4 3 2 1 1 1
0 1 1 1 1 1 1 1 1 1 1 2 3 3 2 2 1 2 3 4 4 3 4 5 5 5 5 6 5 5 4 4 5 7 9 9 7 5 4 3 2 1 1 0
1 1 1 1 1 1 1 1 1 1 1 1 2 3 2 2 1 1 1 2 3 4 5 7 7 5 4 4 4 4 3 4 6 8 10 9 8 5 4 3 2 1 1 0
1 1 1 0 0 0 0 0 1 2 1 1 2 2 2 1 1 1 1 1 4 6 7 8 7 5 3 3 3 4 4 5 6 8 9 9 8 6 4 2 1 1 1 0
1 1 1 0 0 0 0 0 1 2 2 2 1 1 1 1 1 0 0 1 4 6 6 6 6 5 4 3 4 5 5 5 6 7 7 7 6 4 3 2 1 1 1 0
1 0 0 0 0 0 0 0 0 1 2 2 2 1 1 1 0 0 0 1 2 3 3 4 5 4 4 4 4 5 4 4 4 4 4 3 3 2 2 1 1 1 0 0
0 0 0 0 0 0 0 0 0 0 1 2 3 2 1 1 0 0 0 0 0 0 1 2 3 4 4 4 3 3 3 2 2 1 1 1 1 1 0 0 0 0 0 0
0 0 0 0 0 0 0 0 0 0 1 2 2 2 1 1 0 0 0 0 0 0 0 1 1 3 4 4 3 2 2 1 1 0 0 0 0 0 0 0 0 0 0 0
0 0 0 0 0 0 0 0 0 0 0 1 2 2 1 1 0 0 0 0 0 0 0 0 0 2 3 3 3 4 3 2 1 0 0 0 0 0 0 0 0 0 0 0
0 0 0 0 0 0 0 0 0 0 0 0 1 1 1 1 0 0 0 0 0 0 0 0 0 1 1 2 4 5 5 3 1 0 0 0 0 0 0 0 0 0 0 0
0 0 0 0 0 0 0 0 0 0 0 0 0 0 0 0 0 0 0 0 0 0 0 0 0 0 1 2 4 6 6 4 1 0 0 0 0 0 0 0 0 0 0 0
0 0 0 0 0 0 0 0 0 0 0 0 0 0 0 0 0 0 0 0 0 0 0 0 0 0 0 1 4 6 6 3 1 0 0 0 0 0 0 0 0 0 0 0
0 0 0 0 0 0 0 0 0 0 0 0 0 0 0 0 0 0 0 0 0 0 0 0 0 0 0 1 3 5 5 2 1 0 0 0 0 0 0 0 0 0 0 0
0 0 0 0 0 0 0 0 0 0 0 0 0 0 0 0 0 0 0 0 0 0 0 0 0 0 0 0 1 2 2 1 0 0 0 0 0 0 0 0 0 0 0 0
0 0 0 0 0 0 0 0 0 0 0 0 0 0 0 0 0 0 0 0 0 0 0 0 0 0 0 0 1 1 1 0 0 0 0 0 0 0 0 0 0 0 0 0

GEFSNGP_con_maxscp_378.txt.gz
SCP
0 0 0 0 0 0 0 0 1 1 1 1 2 2 2 2 3 3 3 2 2 3 2 2 2 3 4 4 4 4 4 4 4 4 4 4 4 3 3 3 3 3 3 3
0 0 0 0 0 0 0 0 1 1 1 1 2 2 2 2 3 4 3 3 3 3 3 2 3 3 4 4 5 5 5 5 5 5 5 5 4 4 3 3 3 3 3 3
0 0 0 0 0 0 1 1 1 1 1 2 2 2 2 3 4 4 4 4 4 3 3 3 3 4 4 5 5 6 6 6 6 6 6 6 5 5 4 4 4 5 4 4
0 0 0 1 1 1 1 1 2 2 2 2 2 2 2 3 4 5 5 5 4 3 3 3 3 4 4 5 5 7 8 9 10 9 8 8 7 7 6 5 5 5 5 5
0 0 0 1 1 1 1 1 2 2 2 2 2 2 3 4 5 5 5 5 4 3 3 3 3 3 3 3 4 7 10 13 14 13 11 10 9 8 7 6 5 4 4 4
0 0 1 1 1 1 1 1 2 2 2 2 2 2 3 4 5 5 5 5 5 4 4 4 3 3 2 2 3 5 8 12 14 15 13 11 9 8 8 6 5 4 4 4
1 1 1 1 1 1 1 1 2 2 2 2 2 2 3 4 4 4 4 5 6 6 5 5 3 3 2 2 3 3 5 7 10 11 10 9 8 7 7 6 6 6 6 5
1 1 1 1 1 1 1 2 2 2 3 2 2 3 3 4 4 5 5 5 7 8 7 6 4 3 3 3 3 4 4 5 6 7 7 7 7 6 6 6 7 7 7 6
1 1 1 1 1 1 2 2 2 2 3 3 3 3 4 4 5 6 7 7 7 8 9 7 5 3 3 4 4 5 6 7 7 7 7 7 7 6 5 6 7 7 7 6
1 1 1 1 1 1 2 3 3 3 3 3 4 4 4 5 6 7 8 8 7 8 9 9 7 4 3 4 5 6 7 8 9 9 9 8 7 6 5 5 6 6 6 6
1 1 1 1 1 2 3 3 3 3 4 5 5 5 5 5 6 6 7 7 7 8 9 10 9 7 4 3 4 6 7 8 9 9 9 8 7 6 5 4 4 4 4 4
1 1 2 2 2 2 2 3 3 3 4 5 5 5 5 5 5 5 5 5 6 6 8 9 10 8 5 3 3 5 6 7 8 8 8 8 7 6 4 3 2 2 2 2
2 2 2 2 2 2 2 3 3 4 4 5 5 5 5 5 4 4 3 4 5 5 6 8 10 9 5 3 3 4 5 7 7 8 8 8 8 7 5 4 3 2 2 1
2 2 2 2 2 2 3 3 4 4 4 4 4 4 4 3 3 3 3 3 4 5 5 7 9 10 7 4 4 4 5 6 7 8 9 8 8 7 7 6 6 6 3 1
2 2 2 2 3 3 3 3 4 4 4 3 3 3 2 3 3 3 3 3 3 4 4 5 8 9 9 7 6 6 6 6 7 8 9 9 8 8 8 9 9 9 6 4
2 2 2 2 3 3 3 3 4 4 3 3 2 1 2 3 4 4 4 4 3 3 3 4 5 7 8 7 6 6 6 6 6 8 9 9 9 9 9 9 9 9 8 6
2 2 2 2 3 3 3 3 3 3 2 2 1 1 1 3 4 5 5 4 4 3 2 3 4 5 6 5 4 4 5 5 6 8 10 10 10 9 9 10 9 8 7 6
2 2 2 2 2 2 2 2 2 2 1 1 1 1 1 2 3 4 4 4 4 3 3 2 3 5 5 4 4 4 5 6 7 9 10 10 9 8 8 9 8 7 5 4
2 2 2 2 2 2 1 1 1 1 1 1 1 1 1 2 2 2 2 3 3 3 3 2 2 4 6 5 5 5 6 8 10 11 10 9 7 6 6 6 5 5 3 2
2 2 2 2 2 1 1 1 1 1 1 1 1 1 2 2 2 2 2 1 1 2 2 2 2 3 4 5 5 6 7 8 10 10 9 7 5 4 4 3 3 2 2 1
1 1 1 1 1 1 1 1 1 1 1 1 1 1 1 1 1 1 1 1 1 1 1 1 1 2 2 4 5 5 6 6 7 8 6 5 4 4 3 3 2 2 1 1
1 1 1 1 1 1 1 1 1 1 1 1 1 1 1 1 1 1 1 1 1 1 1 1 1 1 1 2 4 5 5 4 5 5 4 4 4 3 3 2 2 1 1 1
2 2 1 1 1 1 1 1 1 1 1 1 1 1 1 1 1 1 1 1 1 1 1 1 1 1 1 1 2 3 3 3 3 3 3 2 3 2 2 2 1 1 1 1
2 2 1 1 1 1 1 1 1 1 1 1 1 0 0 0 0 0 1 0 0 0 1 1 0 0 0 1 1 1 2 2 2 2 1 1 1 1 2 2 1 1 1 1
2 2 1 1 1 1 1 1 1 1 1 1 1 0 0 0 0 0 0 0 0 0 0 1 0 0 0 0 1 0 0 1 1 1 1 0 1 1 1 1 2 2 2 2
2 2 1 1 1 1 1 1 1 1 1 1 1 0 0 1 1 1 1 1 0 0 1 1 1 0 0 1 0 0 0 0 0 0 0 0 0 1 1 1 2 2 2 2
2 2 1 1 1 1 1 1 1 1 1 1 0 0 1 1 1 1 1 1 0 1 1 1 1 1 1 1 1 0 0 0 0 0 0 0 0 1 1 1 2 2 2 2

GEFSNGP_con_maxscp_384.txt.gz
SCP
0 0 1 1 1 1 1 0 0 1 1 1 1 2 5 9 9 7 7 8 8 8 8 9 11 12 12 11 10 11 11 10 10 10 9 8 7 7 7 7 7 8 9 10
0 0 1 1 1 1 0 0 1 1 2 1 1 2 5 8 8 7 7 9 10 10 10 10 10 10 10 10 10 11 10 10 9 9 8 7 7 7 7 7 7 8 8 9
0 0 1 1 1 1 1 1 1 2 2 2 2 2 4 6 6 6 7 10 14 16 14 12 10 10 9 9 10 10 9 9 8 7 6 6 6 6 7 8 8 8 8 8
0 0 1 1 2 2 2 2 2 2 3 3 3 2 3 3 4 5 7 10 15 18 18 14 11 10 9 10 10 9 9 8 7 6 6 6 6 6 7 8 9 8 8 8
1 1 1 2 2 2 2 3 3 3 3 3 3 2 3 4 5 7 8 10 13 15 17 15 11 10 10 11 11 10 9 8 6 5 5 6 6 6 7 8 8 8 8 8
1 1 1 2 2 2 2 3 4 4 4 3 3 3 4 6 8 8 8 9 10 11 14 14 12 11 12 13 12 11 9 8 6 5 5 5 5 6 6 7 7 7 8 8
1 1 1 2 2 2 2 3 4 4 4 4 4 5 6 7 8 8 8 8 8 9 11 12 12 11 12 14 14 12 10 8 6 5 5 5 5 5 6 6 7 7 7 8
2 2 2 2 3 3 4 4 4 4 4 5 6 7 7 8 8 8 8 9 13 14 12 12 12 11 12 13 15 13 10 7 6 6 5 5 6 6 7 6 6 7 7 8
3 3 4 4 4 5 6 6 5 4 4 5 7 8 8 8 9 9 8 11 21 28 22 15 13 12 12 13 14 13 10 8 7 7 7 7 8 8 8 7 7 7 7 7
4 4 5 5 5 6 7 7 6 4 4 5 6 7 8 8 9 9 8 10 19 31 34 25 16 13 14 14 14 13 11 9 9 8 7 8 9 10 9 9 8 8 8 8
4 4 4 5 6 6 7 7 6 5 6 6 6 6 8 9 10 9 8 8 11 20 31 36 26 17 14 14 15 14 13 12 10 8 6 7 9 10 9 8 7 7 8 8
3 3 3 3 5 6 8 7 6 6 7 7 7 7 9 10 11 9 8 7 7 10 18 29 30 20 15 15 16 17 16 14 11 8 7 7 9 9 7 5 4 4 5 5
2 2 2 3 5 7 9 8 6 5 7 8 8 8 9 11 11 9 7 7 6 6 8 14 18 16 14 15 16 18 18 16 14 12 9 8 8 8 6 4 3 2 2 2
2 2 2 3 5 8 9 7 5 5 9 10 10 9 9 10 9 8 6 6 6 6 6 8 9 10 10 11 14 17 18 17 16 15 12 10 9 8 7 5 4 4 3 1
2 2 2 3 6 9 9 7 5 5 9 10 9 8 8 8 8 7 7 6 6 7 8 9 9 9 9 9 11 15 16 15 15 15 14 12 11 9 8 7 6 6 5 4
1 1 2 3 7 10 10 8 6 6 7 7 7 6 7 7 7 7 7 7 7 8 9 9 9 9 9 8 9 11 12 11 11 14 14 13 12 10 9 8 8 8 7 7
1 1 2 3 6 8 9 8 8 8 7 6 6 6 6 7 7 6 6 6 6 7 7 7 7 7 7 7 7 9 9 8 8 10 11 11 10 10 10 9 9 9 8 8
1 2 2 4 6 7 8 8 9 10 9 8 7 6 6 6 5 5 5 5 5 6 5 5 5 5 6 5 5 7 8 8 6 6 7 8 9 9 10 10 10 9 8 7
2 3 3 5 6 7 8 8 8 9 8 7 7 7 8 7 6 6 6 5 5 5 4 4 4 5 5 4 4 5 8 8 6 5 6 7 9 10 12 12 12 11 9 6
3 3 4 5 6 6 7 7 8 8 8 9 9 10 10 9 8 7 7 6 5 4 3 3 3 4 4 3 3 5 9 10 7 6 6 8 10 13 14 15 14 13 9 6
3 4 5 6 6 6 7 8 9 10 11 11 11 10 9 8 7 6 5 4 3 3 2 2 3 4 4 2 3 6 10 11 10 9 9 10 12 14 16 16 14 12 9 6
4 4 6 7 7 7 8 8 9 10 9 9 8 7 5 4 4 3 3 3 2 2 2 2 2 2 2 2 2 5 8 10 10 9 10 11 12 13 13 13 11 9 7 6
5 6 7 7 7 7 6 5 5 5 4 3 3 3 3 2 2 1 1 1 1 1 1 1 1 1 1 1 1 3 5 7 7 8 7 8 8 8 8 8 7 5 5 4
5 5 6 7 6 5 3 2 2 2 2 2 2 2 2 1 1 1 1 1 1 1 1 1 0 0 0 1 1 1 2 4 5 5 4 3 3 3 3 3 3 3 3 3
4 5 6 6 5 4 3 2 2 2 2 2 2 2 1 1 1 1 1 1 1 0 0 0 0 0 0 0 1 1 1 2 2 2 2 1 1 1 1 1 1 1 1 1
4 5 5 5 4 3 2 2 2 2 2 2 1 1 1 1 1 2 2 2 1 1 1 0 0 0 0 0 1 1 1 1 1 1 1 1 0 0 0 0 0 0 1 1
4 4 4 4 3 2 1 1 2 2 2 2 1 1 1 2 2 2 2 2 1 1 1 0 0 0 0 0 1 1 1 1 1 1 1 0 0 0 0 0 0 0 1 1